Regional Weather Roundup
Issued by NWS

Home | Current Version | Previous Version | Graphics & Text | Print | Product List | Glossary On
Versions: 1 2 3 4 5 6 7 8 9 10 11 12 13 14 15 16 17 18 19 20 21 22 23 24 25 26 27 28 29 30 31 32 33 34 35 36 37 38 39 40 41 42 43 44 45 46 47 48 49 50
000
ASUS43 KBIS 290420
RWRND

NORTH DAKOTA REGIONAL WEATHER ROUNDUP
NATIONAL WEATHER SERVICE BISMARCK ND
1100 PM CDT THU AUG 28 2014

NOTE: "FAIR" INDICATES FEW OR NO CLOUDS BELOW 12,000 FEET WITH NO
SIGNIFICANT WEATHER AND/OR OBSTRUCTIONS TO VISIBILITY.


NDZ001>003-009>011-017-290500-
NORTHWEST NORTH DAKOTA

CITY           SKY/WX    TMP DP  RH WIND       PRES   REMARKS
WILLISTON      CLEAR     72  50  45 W12       29.77F
MINOT          CLOUDY    71  66  84 S10       29.75F
MINOT AFB      MOCLDY    70  70  99 S10       29.75F
$$

NDZ018>021-031>035-040>046-290500-
SOUTHWEST NORTH DAKOTA

CITY           SKY/WX    TMP DP  RH WIND       PRES   REMARKS
BISMARCK       MOCLDY    64  63  96 SE5       29.84F
DICKINSON      CLEAR     64  58  80 S9        29.83S
GARRISON         N/A     69  67  93 S9        29.80F
HETTINGER ARPT CLEAR     66  56  70 S5        29.88F
$$

NDZ004>008-012>016-024-026-027-054-290500-
NORTHEAST NORTH DAKOTA

CITY           SKY/WX    TMP DP  RH WIND       PRES   REMARKS
GRAND FORKS    CLOUDY    68  64  87 S10       29.85F
GRND FRKS AFB  CLOUDY    68  67  99 S10       29.85F
DEVILS LAKE    MOCLDY    66  61  82 S13       29.81S
$$

NDZ022-023-025-028>030-036>039-047>053-290500-
SOUTHEAST NORTH DAKOTA

CITY           SKY/WX    TMP DP  RH WIND       PRES   REMARKS
FARGO          LGT RAIN  67  64  90 S13       29.85F
JAMESTOWN      CLOUDY    66  65  96 S8        29.85F FOG
$$



USA.gov is the U.S. government's official web portal to all federal, state and local government web resources and services.